NOAA 16 DEB, 41077

Orbit data source: Space-Track

NOAA 16 DEB, 41077 is space debris in SSO originally from a launch on Thu, 21 Sep 2000 UTC launched from the Air Force Western Test Range (AFWTR). Debris objects in space refer to the collection of defunct objects orbiting the Earth. Examples of debris include non-operational satellites, rocket bodies, and fragments generated from explosions, collisions, or faulty payload assembly.

Loading next visibility...
Identifier
41077, 2000-055AL
Orbit
SSO
Country
Flag of USUS
Related business
Manufacturer
Unknown
Mission
Spacecraft
Bus & Motor
Unknown
Mass
Unknown
Launch date (UTC)
2000-09-21 (25 years ago)
Launch vehicle
Unknown
Launch site
Air Force Western Test Range (AFWTR)
Object type
Payload
Rocket body
Debris
Shape & HBR
Unknown shape, 0.1 m
Radar Cross Section
Small (<0.1 m²)

Expand to show TLE details & history
Last TLE update: 7 hours ago

TLE from 7 hours ago
0 NOAA 16 DEB
1 41077U 00055AL  25346.99795151  .00000813  00000-0  61708-3 0  9992
2 41077  98.8142   2.3147 0112846 338.8142  20.8366 13.93696901510302
Epoch: 2025-12-12T23:57Z
TLE epoch observation values (Epoch: 2025-12-12T23:57:03.010Z)
Latitude
-0.00001°
Longitude
-78.87938°
Altitude
841.759 km
Speed
7.471 km/s
True Right ascension
00h 09m 15s
True Declination
0° 00' 00"
Sunlit
Object was in daylight at epoch
Visualization orbit readout
Latitude
Unknown
Longitude
Unknown
Altitude
Unknown
Speed
Unknown
Apparent Right ascension
Unknown
Apparent Declination
Unknown
Sunlit
N/A
Visualization observer readout
Local Sidereal Time
05:23:37
Azimuth
Unknown
Elevation
Unknown
Doppler factor
Unknown
Orbital elements
Apogee altitude
995.179 km
Perigee altitude
830.626 km
Semi-major axis
7,291.039 km
Eccentricity
0.01128
Inclination
98.8142°
RAAN
2.3147°
Arg. of periapsis
338.8142°
True anomaly
21.3027°
Mean anomaly
20.8366°
Eccentric anomaly
21.06903°
Mean motion
3.48625 °/min
Orbital period
103.26 mins
BSTAR
0.00061708
Loading maneuver chart data...
Computing Atmospheric mass density...
Loading historical data...
Loading historical data...
Loading historical data...
Loading historical data...
Loading historical data...
Loading historical data...
Loading historical data...

Documentation

Showing up to 5 results
|